RH
43 46 49 49 52 53 50 50 48 44 43 44 44 44 44 43 41 37 34 31 30 29 30 30 30 29 29 28 29 30 30 30 30 29 27 26 25 27 26 25 24 25 26 26 25 24 25 26 25 26 27 27 27 28 29 29 31 32 33 35 37 39 41
40 43 46 48 50 51 49 50 50 46 44 44 44 45 44 43 41 38 37 34 31 28 28 29 29 29 28 27 27 28 29 29 29 28 27 25 25 26 26 25 24 24 25 25 24 24 24 24 25 26 27 27 27 28 29 28 29 30 31 32 33 36 40
36 38 43 46 48 49 48 49 50 47 44 43 44 44 43 42 41 38 37 36 33 30 28 28 28 28 28 27 27 27 27 28 28 27 26 24 23 23 24 25 24 23 24 24 24 24 24 25 26 26 26 25 25 26 27 26 26 27 29 29 29 32 36
33 34 39 43 47 48 48 49 50 47 44 42 43 44 43 42 41 39 37 37 36 32 28 27 27 27 27 28 27 26 26 26 27 26 25 24 23 23 24 23 23 23 23 23 24 25 26 26 26 26 24 23 23 23 24 25 24 25 26 27 26 28 31
31 32 35 40 44 46 46 48 49 48 45 42 42 44 44 44 42 40 38 36 35 32 28 27 27 27 27 27 27 26 25 25 26 26 25 25 24 24 24 23 22 22 22 22 24 25 26 26 25 24 21 20 21 21 21 22 22 23 24 25 26 27 29
30 32 33 37 41 42 45 47 48 48 46 42 42 44 45 44 42 39 38 36 35 32 29 28 27 27 27 27 27 27 26 25 25 26 26 25 25 25 24 23 22 22 22 22 23 24 25 25 23 21 19 18 18 19 18 18 20 22 24 24 26 28 29
29 31 32 36 39 41 43 46 47 47 46 44 44 45 46 44 42 39 37 36 34 32 30 28 27 27 27 27 27 27 27 25 25 25 25 25 25 24 23 24 23 23 23 23 23 23 24 23 22 20 18 17 16 17 17 16 18 22 24 24 25 27 30
27 29 31 35 38 38 41 44 45 47 47 46 45 45 44 43 42 39 37 35 34 31 29 28 27 27 27 27 27 26 26 26 25 24 25 24 24 23 23 23 23 23 24 23 22 22 22 21 20 19 17 16 15 15 16 16 18 22 25 25 25 26 29
27 28 30 33 35 35 38 40 44 46 46 46 46 45 44 43 42 40 36 34 32 29 28 27 26 26 27 27 26 25 26 26 26 25 24 24 23 22 22 21 22 22 23 22 21 21 19 19 18 18 17 15 15 16 17 18 20 23 25 25 25 26 26
25 26 27 30 32 34 36 39 43 45 44 44 46 46 45 44 43 41 38 35 32 29 27 26 26 26 26 26 26 26 26 26 25 25 24 23 22 22 21 21 21 21 20 20 20 19 17 17 17 16 15 14 15 16 18 20 22 23 24 24 24 24 24
22 24 24 26 29 33 37 40 43 42 41 42 45 46 46 45 44 42 39 36 33 30 27 26 27 26 26 26 26 27 26 26 25 25 23 22 22 21 21 20 20 19 19 19 18 17 16 16 16 15 15 14 15 17 19 21 22 23 23 24 24 24 24
20 22 22 24 28 33 38 40 41 40 39 40 43 45 46 46 45 43 39 37 35 31 28 27 27 28 27 27 26 27 27 27 25 24 23 22 22 21 21 20 19 18 17 18 17 17 16 15 15 14 14 14 16 18 19 21 22 22 23 24 24 23 24
17 19 21 24 27 33 39 41 40 40 39 39 40 44 45 46 45 43 39 37 35 33 30 28 29 29 29 28 28 27 27 26 25 24 23 23 22 21 20 20 19 18 17 17 17 17 16 15 15 14 15 16 17 18 20 21 22 22 22 22 22 22 22
14 17 19 23 26 30 37 41 42 42 40 38 39 43 45 46 45 43 41 37 35 33 31 29 29 29 29 29 29 28 26 25 25 24 24 23 22 22 21 20 19 18 17 17 17 16 15 15 15 16 16 18 18 18 20 21 22 22 21 21 20 20 19
13 15 17 20 25 28 34 39 40 41 39 37 38 43 46 46 45 44 41 38 35 34 33 30 29 28 29 30 29 28 26 25 24 24 23 23 23 22 21 20 20 18 18 18 17 15 15 16 18 19 19 19 19 20 21 22 22 21 20 20 18 18 16
13 14 15 18 23 27 32 36 38 38 38 37 38 42 46 46 45 43 41 38 35 35 34 32 29 28 29 29 28 28 27 26 24 23 23 22 22 21 21 20 20 19 19 18 17 17 17 19 20 21 21 20 21 22 23 23 22 21 19 18 17 16 15
14 14 15 17 21 24 28 34 37 38 37 36 37 42 46 45 43 43 42 38 35 35 35 33 30 29 28 29 29 29 28 28 25 22 22 22 22 22 21 21 20 20 20 18 18 18 20 21 22 21 21 22 23 24 25 24 22 21 19 17 16 16 15
16 15 14 16 19 22 25 29 35 38 38 36 37 41 45 45 43 43 42 38 34 34 34 33 31 29 28 28 29 29 29 28 25 23 21 21 21 21 21 21 21 21 20 19 19 21 22 23 23 22 23 23 25 26 26 24 23 21 20 18 16 16 16
18 16 14 16 19 22 23 26 32 37 38 37 37 40 43 43 42 41 39 35 34 34 33 32 33 32 30 29 29 28 28 27 25 23 21 20 20 20 21 21 21 21 20 20 21 22 24 25 25 25 26 26 27 27 27 25 24 23 21 19 17 17 17
18 18 15 17 21 23 24 28 33 38 39 39 39 40 43 43 42 41 38 36 35 34 32 33 35 36 36 34 32 29 28 27 26 24 22 20 19 20 20 21 21 21 21 22 24 26 27 27 27 27 27 28 28 28 28 27 26 25 22 20 18 19 21
16 17 16 18 22 25 28 32 35 39 41 44 44 43 45 46 44 42 40 38 36 34 34 35 36 38 39 38 36 33 31 30 29 28 26 24 22 21 21 20 21 22 24 26 29 30 30 29 29 29 28 29 29 29 28 27 27 26 24 22 21 22 26
18 16 18 18 20 26 31 32 34 40 45 47 46 46 47 47 46 44 41 39 37 35 35 36 37 38 38 38 38 37 35 34 33 32 31 29 28 27 26 25 25 26 28 30 32 33 34 33 33 32 30 30 31 30 29 28 28 28 25 24 24 26 29
24 19 20 20 22 27 31 33 37 43 47 47 47 47 47 48 47 45 43 41 38 36 35 35 36 35 35 35 36 37 37 37 37 37 36 36 36 36 36 37 36 37 36 36 36 36 36 36 36 35 34 33 32 31 30 29 28 29 28 28 28 29 30
33 25 22 23 24 28 31 35 40 45 46 46 47 47 47 47 48 46 44 43 40 37 34 33 33 33 32 33 34 36 37 38 39 40 41 43 44 45 45 45 46 46 45 44 42 40 38 37 37 37 37 36 35 34 33 32 30 31 32 32 32 31 30
40 32 26 24 24 28 32 37 41 44 45 45 44 45 46 47 48 48 46 44 43 38 35 34 34 34 34 34 35 37 39 40 41 44 45 47 47 47 47 48 47 47 48 46 45 44 42 39 37 36 36 37 38 39 39 37 35 36 37 37 36 35 34
44 39 33 28 26 30 35 39 40 41 42 41 41 43 46 47 48 48 46 45 44 40 37 36 37 38 37 38 39 39 40 40 43 45 47 47 47 47 47 46 46 46 46 46 45 45 45 43 41 39 37 37 40 42 42 41 39 39 41 41 40 39 39
45 43 40 34 32 35 39 41 41 42 44 43 41 43 47 47 47 47 46 46 45 42 39 40 41 41 40 40 40 40 40 41 43 45 47 48 48 48 47 45 44 44 43 43 44 44 45 45 44 44 43 41 43 45 45 44 42 41 43 44 43 42 42
44 45 43 40 38 41 44 45 45 46 48 47 45 45 46 47 48 48 47 47 46 43 42 42 43 42 42 41 42 41 41 43 45 46 47 48 48 48 48 47 46 44 43 43 43 43 44 46 47 48 49 49 50 50 49 47 46 45 45 45 45 44 43
46 44 42 42 43 46 48 49 50 51 52 50 48 48 48 48 49 50 50 49 48 46 45 45 44 44 44 44 44 44 43 43 44 45 46 47 47 48 48 49 49 47 46 45 44 42 43 46 49 51 54 55 57 56 54 51 49 48 47 45 44 43 43
51 47 43 42 46 50 51 53 54 56 56 55 53 51 51 51 52 52 53 53 52 50 49 49 49 46 45 45 45 44 43 42 43 44 45 46 46 47 47 48 49 49 49 48 46 45 44 45 48 52 56 57 58 59 57 55 52 51 48 45 44 43 44
58 53 48 46 48 52 54 56 58 59 59 60 58 57 55 54 54 56 57 57 57 54 51 51 50 48 46 45 44 43 43 43 43 43 44 44 44 44 45 46 47 48 49 49 48 47 47 46 47 49 53 55 56 56 57 56 54 50 47 47 47 48 49
64 59 55 52 52 55 57 59 59 59 60 61 59 57 57 57 57 57 58 58 57 55 51 48 48 46 44 43 43 43 42 42 41 40 41 41 43 43 44 44 43 44 46 47 48 48 48 47 47 47 50 52 53 53 54 53 50 47 46 48 49 50 50
67 65 64 62 59 59 62 63 61 61 60 59 57 56 56 57 57 56 56 55 55 53 50 48 46 44 42 42 43 42 42 41 41 40 39 39 41 42 43 42 42 42 43 44 45 46 47 47 47 48 49 50 51 53 53 52 50 49 49 50 50 51 52
63 65 66 68 67 66 68 68 66 65 64 61 59 57 55 53 50 49 50 50 49 48 47 46 45 44 43 43 42 42 43 43 41 41 40 39 40 41 42 42 42 42 41 41 42 43 45 47 47 48 48 49 50 51 52 53 53 54 54 55 55 55 56
56 60 60 62 65 67 68 68 65 64 64 62 59 55 52 49 47 47 47 47 46 44 42 43 44 44 43 43 42 42 43 43 42 41 42 41 40 40 41 41 41 42 42 41 41 41 42 45 47 48 48 49 49 49 50 52 53 54 55 56 57 58 58
48 55 58 57 59 62 63 63 61 59 58 58 55 52 50 49 50 50 49 48 46 44 43 42 42 43 45 45 44 43 43 43 42 41 41 41 41 40 40 40 41 42 42 42 42 42 42 43 45 47 48 49 49 49 49 49 51 53 54 55 56 57 57
45 50 56 58 57 58 59 58 58 56 56 56 55 53 54 54 53 49 47 45 44 44 44 42 41 42 45 47 46 45 45 45 43 42 41 41 41 41 40 40 40 41 42 42 42 42 43 44 45 46 46 46 46 48 48 48 48 49 49 51 53 53 53
48 48 54 60 60 58 58 58 57 58 58 58 58 58 59 59 54 47 43 41 40 38 38 37 37 39 43 46 46 46 46 45 43 42 41 40 40 40 40 40 39 39 39 40 39 40 41 43 45 44 43 43 43 45 47 48 47 47 46 47 48 49 50